Location: Mountain Grove
(34.0887°N, 86.6172°W)
Time: 21:17:05
(UTC+00:00)

Resurs 1-3 - Pass Details

Date: 14 July 2020
Orbit: 630 x 632 km, 97.9° (Epoch: 08 August)

Event Time Altitude Azimuth Distance (km) Brightness Sun altitude
Exits shadow 01:45:15 - 147° (SSE) 2,050 5.7 -9.1°
Reaches altitude 10° 01:45:22 10° 146° (SE) 2,005 5.6 -9.1°
Maximum altitude 01:49:31 45° 74° (ENE) 859 4.0 -9.8°
Drops below altitude 10° 01:53:43 10° 2° (N) 2,016 6.7 -10.5°
Sets 01:55:59 0° 356° (N) 2,928 7.6 -10.9°
